{"data":{"norad_id":62042,"intl_designator":"2024-216L","name":"STARLINK-32509","alt_names":[],"object_type":"PAYLOAD","status":"ACTIVE","operator":null,"country":"US","launch_date":"2024-11-21","launch_site_code":"AFETR","launch_vehicle":null,"mission":null,"orbit_class":"UNKNOWN","rcs_meters":null,"size_class":null,"mass_kg":null,"dimensions":null,"purposes":["comms"],"wikipedia_slug":null,"has_3d_model":false,"image_url":null,"decayed_at":null,"tle_current":{"epoch":"2026-09-21T05:59:46.159584Z","epoch_age_seconds":120792,"freshness":"FRESH","line1":"1 62042U 24216L   26264.24983981  .00015491  00000+0  57124-3 0  9994","line2":"2 62042  43.0013 231.9393 0001653 271.2757  88.7905 15.27581113103783","mean_motion":15.27581113,"eccentricity":0.0001653,"inclination_deg":43.0013,"raan_deg":231.9393,"arg_perigee_deg":271.2757,"mean_anomaly_deg":88.7905,"bstar":0.00057124,"rev_number":10378,"period_min":94.266680030627,"perigee_km":481.9116098085,"apogee_km":484.17991683005,"semimajor_km":6861.1827633193,"source":"CELESTRAK","updated_at":"2026-09-22T09:00:49.488249Z"}}}